GW2490 Weather Reports


Display with metric or nautical units.
time (UTC)temp
F
wind
direction
speed
MPH
gust
MPH
rain 1hr
in
rain 24hr
in
rain mn
in
humidity
%
barometer
mb
20260502212957 64 305 6.0 10.0 0.00 0.00 0.02 61 1016.7
20260502212457 64 308 6.0 9.0 0.00 0.00 0.02 62 1016.7
20260502211959 64 300 6.0 9.0 0.00 0.00 0.02 63 1016.7
20260502211549 0 0.0 0.0 0.00 0.00 0.00
20260502211457 64 306 6.0 11.0 0.00 0.00 0.02 64 1016.8
20260502211050 0 0.0 0.0 0.00 0.00 0.00
20260502210957 63 319 5.0 9.0 0.00 0.00 0.02 65 1016.8
20260502210457 63 312 8.0 10.0 0.00 0.00 0.02 66 1016.8
20260502210049 0 0.0 0.0 0.00 0.00 0.00
20260502205958 63 304 6.0 9.0 0.00 0.00 0.02 65 1016.9
20260502205550 0 0.0 0.0 0.00 0.00 0.00
20260502205458 62 311 5.0 8.0 0.00 0.00 0.02 67 1017.0
20260502205050 0 0.0 0.0 0.00 0.00 0.00
20260502204957 63 308 7.0 10.0 0.00 0.00 0.02 68 1017.0
20260502204550 0 0.0 0.0 0.00 0.00 0.00
20260502204457 63 291 5.0 9.0 0.00 0.00 0.02 67 1017.0
20260502204047 0 0.0 0.0 0.00 0.00 0.00
20260502203957 63 306 6.0 10.0 0.00 0.00 0.02 66 1017.0
20260502203457 62 303 6.0 12.0 0.00 0.00 0.02 66 1017.0
20260502202957 62 315 8.0 13.0 0.00 0.00 0.02 65 1017.0
20260502202548 0 0.0 0.0 0.00 0.00 0.00
20260502202457 62 313 6.0 9.0 0.00 0.00 0.02 66 1017.1
20260502202047 0 0.0 0.0 0.00 0.00 0.00
20260502201957 61 306 6.0 9.0 0.00 0.00 0.02 66 1017.1
20260502201548 0 0.0 0.0 0.00 0.00 0.00
20260502201457 61 311 7.0 11.0 0.00 0.00 0.02 68 1017.0
20260502200957 61 316 6.0 15.0 0.00 0.00 0.02 69 1017.1
20260502200548 0 0.0 0.0 0.00 0.00 0.00
20260502200457 60 320 5.0 8.0 0.00 0.00 0.02 70 1017.3
20260502200048 0 0.0 0.0 0.00 0.00 0.00
20260502195959 60 311 8.0 10.0 0.00 0.00 0.02 70 1017.2
20260502195548 0 0.0 0.0 0.00 0.00 0.00
20260502195457 60 316 4.0 8.0 0.00 0.00 0.02 72 1017.4
20260502195048 0 0.0 0.0 0.00 0.00 0.00
20260502194958 60 318 6.0 11.0 0.00 0.00 0.02 73 1017.4
20260502194457 59 303 5.0 9.0 0.00 0.00 0.02 74 1017.3
20260502194045 0 0.0 0.0 0.00 0.00 0.00
20260502193957 59 307 5.0 9.0 0.00 0.00 0.02 74 1017.5
20260502193546 0 0.0 0.0 0.00 0.00 0.00
20260502193457 59 314 5.0 9.0 0.00 0.00 0.02 75 1017.5
20260502193045 0 0.0 0.0 0.00 0.00 0.00
20260502192958 58 303 7.0 9.0 0.00 0.00 0.02 75 1017.6
20260502192545 0 0.0 0.0 0.00 0.00 0.00
20260502192046 0 0.0 0.0 0.00 0.00 0.00
20260502192032 58 304 6.0 9.0 0.00 0.00 0.02 77 1017.5
20260502191546 0 0.0 0.0 0.00 0.00 0.00
20260502191457 58 306 4.0 6.0 0.00 0.00 0.02 78 1017.7
20260502191045 0 0.0 0.0 0.00 0.00 0.00
20260502190959 58 306 6.0 9.0 0.00 0.00 0.02 78 1017.7
20260502190546 0 0.0 0.0 0.00 0.00 0.00
20260502190457 58 315 4.0 6.0 0.00 0.00 0.02 79 1017.7
20260502190046 0 0.0 0.0 0.00 0.00 0.00
20260502185957 58 297 5.0 7.0 0.00 0.00 0.02 78 1017.7
20260502185546 0 0.0 0.0 0.00 0.00 0.00
20260502185458 58 298 4.0 6.0 0.00 0.00 0.02 79 1017.8
20260502185046 0 0.0 0.0 0.00 0.00 0.00
20260502184957 57 315 5.0 10.0 0.00 0.00 0.02 79 1017.7
20260502184457 57 310 7.0 11.0 0.00 0.00 0.02 80 1017.7
20260502183957 56 286 4.0 6.0 0.00 0.00 0.02 80 1017.8
20260502183543 0 0.0 0.0 0.00 0.00 0.00
20260502183458 56 299 5.0 9.0 0.00 0.00 0.02 81 1018.0
20260502183043 0 0.0 0.0 0.00 0.00 0.00
20260502182957 55 301 5.0 8.0 0.00 0.00 0.02 82 1017.9
20260502182544 0 0.0 0.0 0.00 0.00 0.00
20260502182457 55 321 5.0 9.0 0.00 0.00 0.02 83 1017.7
20260502182044 0 0.0 0.0 0.00 0.00 0.00
20260502181958 55 309 6.0 10.0 0.00 0.00 0.02 84 1017.6
20260502181544 0 0.0 0.0 0.00 0.00 0.00
20260502181457 54 316 5.0 8.0 0.00 0.00 0.02 85 1017.5
20260502181043 0 0.0 0.0 0.00 0.00 0.00
20260502180957 54 327 6.0 11.0 0.00 0.00 0.02 85 1017.3
20260502180544 0 0.0 0.0 0.00 0.00 0.00
20260502180457 54 312 8.0 13.0 0.00 0.00 0.02 85 1017.4
20260502170457 53 301 6.0 8.0 0.00 0.00 0.02 88 1018.0
20260502164039 0 0.0 0.0 0.00 0.00 0.00
20260502163957 53 313 6.0 11.0 0.00 0.00 0.02 88 1017.7
20260502163536 0 0.0 0.0 0.00 0.00 0.00
20260502163457 53 316 6.0 9.0 0.00 0.00 0.02 87 1017.6
20260502163037 0 0.0 0.0 0.00 0.00 0.00
20260502162957 53 322 6.0 9.0 0.00 0.00 0.02 88 1017.6
20260502162536 0 0.0 0.0 0.00 0.00 0.00
20260502162457 53 318 6.0 11.0 0.00 0.00 0.02 87 1017.6
20260502162036 0 0.0 0.0 0.00 0.00 0.00
20260502161957 53 310 4.0 8.0 0.00 0.00 0.02 87 1017.6
20260502161537 0 0.0 0.0 0.00 0.00 0.00
20260502161457 53 310 5.0 9.0 0.00 0.00 0.02 87 1017.5
20260502161037 0 0.0 0.0 0.00 0.00 0.00
20260502160957 53 311 5.0 9.0 0.00 0.00 0.02 87 1017.5
20260502160536 0 0.0 0.0 0.00 0.00 0.00
20260502160457 53 313 5.0 8.0 0.00 0.00 0.02 87 1017.4
20260502151957 52 315 8.0 14.0 0.00 0.00 0.01 89 1017.6
20260502151457 51 313 7.0 10.0 0.00 0.00 0.01 89 1017.6
20260502151034 0 0.0 0.0 0.00 0.00 0.00
20260502150957 51 318 6.0 11.0 0.00 0.00 0.01 90 1017.7
20260502150535 0 0.0 0.0 0.00 0.00 0.00
20260502150457 51 318 8.0 12.0 0.00 0.00 0.01 91 1017.8
20260502130527 0 0.0 0.0 0.00 0.00 0.00
20260502130457 51 340 6.0 9.0 0.00 0.00 0.00 92 1017.1
20260502123528 0 0.0 0.0 0.00 0.00 0.00
20260502123458 51 323 8.0 13.0 0.00 0.00 0.00 90 1016.8
20260502123028 0 0.0 0.0 0.00 0.00 0.00
20260502122957 51 318 7.0 13.0 0.00 0.00 0.00 90 1016.8
20260502122528 0 0.0 0.0 0.00 0.00 0.00
20260502122457 51 324 6.0 9.0 0.00 0.00 0.00 89 1016.9
20260502121957 51 313 6.0 8.0 0.00 0.00 0.00 89 1016.7
20260502121525 0 0.0 0.0 0.00 0.00 0.00
20260502121457 51 323 6.0 11.0 0.00 0.00 0.00 89 1016.6
20260502121026 0 0.0 0.0 0.00 0.00 0.00
20260502120957 51 318 7.0 11.0 0.00 0.00 0.00 89 1016.5
20260502120525 0 0.0 0.0 0.00 0.00 0.00
20260502120457 51 322 7.0 10.0 0.00 0.00 0.00 89 1016.5
20260502115523 0 0.0 0.0 0.00 0.00 0.00
20260502115458 51 318 9.0 13.0 0.00 0.00 0.00 89 1016.8
20260502114957 51 316 6.0 9.0 0.00 0.00 0.00 89 1016.8
20260502114457 51 320 4.0 7.0 0.00 0.00 0.00 89 1016.7
20260502114019 0 0.0 0.0 0.00 0.00 0.00
20260502113958 51 312 6.0 9.0 0.00 0.00 0.00 89 1016.9
20260502113517 0 0.0 0.0 0.00 0.00 0.00
20260502113458 52 315 6.0 9.0 0.00 0.00 0.00 89 1016.9
20260502113018 0 0.0 0.0 0.00 0.00 0.00
20260502112957 52 330 5.0 7.0 0.00 0.00 0.00 88 1016.8
20260502112517 0 0.0 0.0 0.00 0.00 0.00
20260502112457 52 318 6.0 9.0 0.00 0.00 0.00 88 1016.8
20260502112018 0 0.0 0.0 0.00 0.00 0.00
20260502111957 52 319 6.0 8.0 0.00 0.00 0.00 87 1016.8
20260502111518 0 0.0 0.0 0.00 0.00 0.00
20260502111457 52 319 6.0 12.0 0.00 0.00 0.00 87 1016.7
20260502111018 0 0.0 0.0 0.00 0.00 0.00
20260502110958 52 319 7.0 9.0 0.00 0.00 0.00 86 1016.7
20260502110518 0 0.0 0.0 0.00 0.00 0.00
20260502110457 52 329 6.0 11.0 0.00 0.00 0.00 86 1016.6
20260502105957 53 318 7.0 13.0 0.00 0.00 0.00 85 1016.5
20260502105457 53 319 9.0 11.0 0.00 0.00 0.00 84 1016.2
20260502104957 53 332 8.0 12.0 0.00 0.00 0.00 84 1016.2
20260502104530 0 0.0 0.0 0.00 0.00 0.00
20260502104457 53 327 7.0 10.0 0.00 0.00 0.00 83 1016.2
20260502104035 0 0.0 0.0 0.00 0.00 0.00
20260502103957 53 322 8.0 12.0 0.00 0.00 0.00 83 1016.2
20260502103458 53 323 8.0 10.0 0.00 0.00 0.00 83 1016.4
20260502102957 54 336 9.0 12.0 0.00 0.00 0.00 82 1016.2
20260502102518 0 0.0 0.0 0.00 0.00 0.00
20260502102458 54 328 9.0 13.0 0.00 0.00 0.00 81 1016.2
20260502101957 54 329 8.0 10.0 0.00 0.00 0.00 81 1016.4
20260502101535 0 0.0 0.0 0.00 0.00 0.00
20260502101457 54 330 8.0 11.0 0.00 0.00 0.00 81 1016.0
20260502101021 0 0.0 0.0 0.00 0.00 0.00
20260502100958 54 329 8.0 11.0 0.00 0.00 0.00 81 1016.2
20260502100531 0 0.0 0.0 0.00 0.00 0.00
20260502100457 54 330 7.0 10.0 0.00 0.00 0.00 80 1016.4
20260502091457 57 325 7.0 12.0 0.00 0.00 0.00 72 1016.5
20260502091013 0 0.0 0.0 0.00 0.00 0.00
20260502090958 57 319 6.0 10.0 0.00 0.00 0.00 72 1016.4
20260502090541 0 0.0 0.0 0.00 0.00 0.00
20260502090457 57 296 4.0 9.0 0.00 0.00 0.00 71 1016.5
20260502071457 60 327 5.0 8.0 0.00 0.00 0.00 63 1016.5
20260502070957 60 299 3.0 7.0 0.00 0.00 0.00 63 1016.5
20260502070518 0 0.0 0.0 0.00 0.00 0.00
20260502070457 60 326 5.0 7.0 0.00 0.00 0.00 63 1016.5
20260502070010 0 0.0 0.0 0.00 0.00 0.00
20260502065957 60 301 3.0 6.0 0.00 0.00 0.00 63 1016.5
20260502065530 0 0.0 0.0 0.00 0.00 0.00
20260502065457 60 299 4.0 8.0 0.00 0.00 0.00 63 1016.2
20260502064957 60 311 3.0 7.0 0.00 0.00 0.00 62 1016.2
20260502064507 0 0.0 0.0 0.00 0.00 0.00
20260502064457 60 313 7.0 11.0 0.00 0.00 0.00 62 1016.2
20260502063957 60 324 4.0 7.0 0.00 0.00 0.00 62 1016.2
20260502063516 0 0.0 0.0 0.00 0.00 0.00
20260502063457 60 309 4.0 8.0 0.00 0.00 0.00 61 1016.4
20260502063008 0 0.0 0.0 0.00 0.00 0.00
20260502062957 60 319 6.0 8.0 0.00 0.00 0.00 61 1016.4
20260502062457 60 315 3.0 6.0 0.00 0.00 0.00 62 1016.1
20260502061957 60 314 6.0 9.0 0.00 0.00 0.00 62 1016.1
20260502061508 0 0.0 0.0 0.00 0.00 0.00
20260502061457 60 317 5.0 8.0 0.00 0.00 0.00 62 1016.1
20260502061028 0 0.0 0.0 0.00 0.00 0.00
20260502060959 60 321 3.0 6.0 0.00 0.00 0.00 62 1016.0
20260502060507 0 0.0 0.0 0.00 0.00 0.00
20260502060457 60 308 5.0 9.0 0.00 0.00 0.00 62 1016.0
20260502060021 0 0.0 0.0 0.00 0.00 0.00
20260502055958 60 326 5.0 11.0 0.00 0.00 0.00 61 1015.9
20260502055516 0 0.0 0.0 0.00 0.00 0.00
20260502055457 60 318 6.0 10.0 0.00 0.00 0.00 61 1016.0
20260502054957 60 332 4.0 9.0 0.00 0.00 0.00 61 1015.9
20260502054457 60 335 6.0 12.0 0.00 0.00 0.00 61 1015.9
20260502054030 0 0.0 0.0 0.00 0.00 0.00
20260502053957 60 316 4.0 6.0 0.00 0.00 0.00 61 1015.9
20260502053457 60 333 6.0 8.0 0.00 0.00 0.00 61 1016.0
20260502052957 60 321 5.0 7.0 0.00 0.00 0.00 61 1015.9
20260502052457 60 321 4.0 6.0 0.00 0.00 0.00 61 1016.0
20260502051957 60 327 6.0 12.0 0.00 0.00 0.00 62 1016.0
20260502051500 60 322 4.0 7.0 0.00 0.00 0.00 62 1016.0
20260502051003 0 0.0 0.0 0.00 0.00 0.00
20260502050957 60 326 5.0 9.0 0.00 0.00 0.00 62 1016.1
20260502050457 60 335 5.0 9.0 0.00 0.00 0.00 62 1016.1
20260502050010 0 0.0 0.0 0.00 0.00 0.00
20260502045957 60 329 5.0 8.0 0.00 0.00 0.00 62 1016.1
20260502045526 0 0.0 0.0 0.00 0.00 0.00
20260502045457 60 322 4.0 6.0 0.00 0.00 0.00 62 1016.1
20260502045010 0 0.0 0.0 0.00 0.00 0.00
20260502044957 60 330 3.0 6.0 0.00 0.00 0.00 62 1016.2
20260502044457 60 326 5.0 7.0 0.00 0.00 0.00 62 1016.2
20260502043957 59 312 2.0 6.0 0.00 0.00 0.00 63 1016.1
20260502043500 59 322 5.0 8.0 0.00 0.00 0.00 62 1016.0
20260502042957 59 325 3.0 7.0 0.00 0.00 0.00 63 1015.8
20260502042520 0 0.0 0.0 0.00 0.00 0.00
20260502042457 59 333 4.0 6.0 0.00 0.00 0.00 63 1015.9
20260502042030 0 0.0 0.0 0.00 0.00 0.00
20260502041957 59 333 7.0 10.0 0.00 0.00 0.00 63 1015.8
20260502041500 0 0.0 0.0 0.00 0.00 0.00
20260502041457 59 329 5.0 9.0 0.00 0.00 0.00 64 1015.7
20260502040957 59 330 6.0 11.0 0.00 0.00 0.00 64 1015.7
20260502040457 59 328 8.0 10.0 0.00 0.00 0.00 64 1015.7
20260502040032 0 0.0 0.0 0.00 0.00 0.00
20260502035957 59 333 6.0 8.0 0.00 0.00 0.00 65 1015.6
20260502035457 59 322 6.0 11.0 0.00 0.00 0.00 65 1015.5
20260502034957 59 327 5.0 8.0 0.00 0.00 0.00 65 1015.4
20260502034458 0 0.0 0.0 0.00 0.00 0.00
20260502033957 59 318 6.0 9.0 0.00 0.00 0.00 65 1015.2
20260502033457 59 327 5.0 9.0 0.00 0.00 0.00 64 1015.3
20260502033008 0 0.0 0.0 0.00 0.00 0.00
20260502032957 59 319 3.0 5.0 0.00 0.00 0.00 64 1015.3
20260502032517 0 0.0 0.0 0.00 0.00 0.00
20260502032458 60 325 5.0 9.0 0.00 0.00 0.00 64 1015.3
20260502032010 0 0.0 0.0 0.00 0.00 0.00
20260502031957 60 320 6.0 9.0 0.00 0.00 0.00 63 1015.2
20260502031458 60 319 6.0 10.0 0.00 0.00 0.00 62 1015.1
20260502031456 0 0.0 0.0 0.00 0.00 0.00
20260502030957 61 317 5.0 9.0 0.00 0.00 0.00 62 1015.1
20260502030955 0 0.0 0.0 0.00 0.00 0.00
20260502030457 61 322 6.0 8.0 0.00 0.00 0.00 61 1015.1
20260502025957 61 311 5.0 10.0 0.00 0.00 0.00 61 1015.1
20260502025953 0 0.0 0.0 0.00 0.00 0.00
20260502025457 62 314 6.0 14.0 0.00 0.00 0.00 59 1015.0
20260502025453 0 0.0 0.0 0.00 0.00 0.00
20260502024957 62 318 4.0 8.0 0.00 0.00 0.00 58 1015.0
20260502024459 62 327 7.0 14.0 0.00 0.00 0.00 58 1014.6
20260502024451 0 0.0 0.0 0.00 0.00 0.00
20260502023957 61 308 6.0 9.0 0.00 0.00 0.00 59 1015.0
20260502023950 0 0.0 0.0 0.00 0.00 0.00
20260502023458 61 312 6.0 10.0 0.00 0.00 0.00 59 1015.0
20260502023450 0 0.0 0.0 0.00 0.00 0.00
20260502022957 61 316 6.0 9.0 0.00 0.00 0.00 60 1014.9
20260502022950 0 0.0 0.0 0.00 0.00 0.00
20260502022457 61 319 6.0 9.0 0.00 0.00 0.00 60 1015.0
20260502022451 0 0.0 0.0 0.00 0.00 0.00
20260502021957 61 321 6.0 9.0 0.00 0.00 0.00 61 1015.0
20260502021950 0 0.0 0.0 0.00 0.00 0.00
20260502021457 61 313 7.0 9.0 0.00 0.00 0.00 61 1015.0
20260502021451 0 0.0 0.0 0.00 0.00 0.00
20260502020958 62 317 5.0 8.0 0.00 0.00 0.00 61 1015.0
20260502020951 0 0.0 0.0 0.00 0.00 0.00
20260502020457 62 309 7.0 9.0 0.00 0.00 0.00 60 1015.0
20260502020451 0 0.0 0.0 0.00 0.00 0.00
20260502015957 62 311 7.0 10.0 0.00 0.00 0.00 59 1015.0
20260502015951 0 0.0 0.0 0.00 0.00 0.00
20260502015457 62 316 6.0 9.0 0.00 0.00 0.00 60 1015.1
20260502015448 0 0.0 0.0 0.00 0.00 0.00
20260502014957 63 315 5.0 9.0 0.00 0.00 0.00 60 1015.0
20260502014949 0 0.0 0.0 0.00 0.00 0.00
20260502014458 62 307 6.0 7.0 0.00 0.00 0.00 60 1015.0
20260502014448 0 0.0 0.0 0.00 0.00 0.00
20260502013957 62 321 6.0 8.0 0.00 0.00 0.00 60 1015.0
20260502013949 0 0.0 0.0 0.00 0.00 0.00
20260502013457 62 309 5.0 7.0 0.00 0.00 0.00 62 1015.0
20260502012957 62 311 5.0 10.0 0.00 0.00 0.00 63 1015.0
20260502012948 0 0.0 0.0 0.00 0.00 0.00
20260502012457 62 310 5.0 7.0 0.00 0.00 0.00 63 1015.1
20260502012449 0 0.0 0.0 0.00 0.00 0.00
20260502011957 62 302 6.0 8.0 0.00 0.00 0.00 63 1015.1
20260502011949 0 0.0 0.0 0.00 0.00 0.00
20260502011457 63 305 6.0 8.0 0.00 0.00 0.00 63 1015.3
20260502011449 0 0.0 0.0 0.00 0.00 0.00
20260502010957 63 305 6.0 9.0 0.00 0.00 0.00 61 1015.3
20260502010949 0 0.0 0.0 0.00 0.00 0.00
20260502010457 63 307 5.0 8.0 0.00 0.00 0.00 62 1015.3
20260502005957 63 312 3.0 5.0 0.00 0.00 0.00 62 1015.4
20260502005949 0 0.0 0.0 0.00 0.00 0.00
20260502005457 63 310 4.0 6.0 0.00 0.00 0.00 64 1015.4
20260502005446 0 0.0 0.0 0.00 0.00 0.00
20260502004957 62 301 5.0 7.0 0.00 0.00 0.00 64 1015.3
20260502004947 0 0.0 0.0 0.00 0.00 0.00
20260502004457 62 316 5.0 7.0 0.00 0.00 0.00 64 1015.3
20260502004446 0 0.0 0.0 0.00 0.00 0.00
20260502003957 63 319 5.0 8.0 0.00 0.00 0.00 64 1015.4
20260502003947 0 0.0 0.0 0.00 0.00 0.00
20260502003457 63 310 6.0 8.0 0.00 0.00 0.00 65 1015.4
20260502003446 0 0.0 0.0 0.00 0.00 0.00
20260502002958 63 316 5.0 8.0 0.00 0.00 0.00 63 1015.4
20260502002948 0 0.0 0.0 0.00 0.00 0.00
20260502002457 63 304 4.0 7.0 0.00 0.00 0.00 63 1015.5
20260502002448 0 0.0 0.0 0.00 0.00 0.00
20260502001957 62 310 4.0 6.0 0.00 0.00 0.00 65 1015.5
20260502001947 0 0.0 0.0 0.00 0.00 0.00
20260502001457 63 311 6.0 8.0 0.00 0.00 0.00 66 1015.5
20260502001449 0 0.0 0.0 0.00 0.00 0.00
20260502000958 63 310 4.0 6.0 0.00 0.00 0.00 65 1015.6
20260502000948 0 0.0 0.0 0.00 0.00 0.00
20260502000457 63 316 5.0 6.0 0.00 0.00 0.00 66 1015.6
20260502000447 0 0.0 0.0 0.00 0.00 0.00
20260501235957 63 306 4.0 7.0 0.00 0.00 0.00 66 1015.6
20260501235947 0 0.0 0.0 0.00 0.00 0.00
20260501235457 64 315 4.0 7.0 0.00 0.00 0.00 66 1015.6
20260501235447 0 0.0 0.0 0.00 0.00 0.00
20260501234957 64 315 5.0 7.0 0.00 0.00 0.00 64 1015.5
20260501234947 0 0.0 0.0 0.00 0.00 0.00
20260501234457 65 307 5.0 8.0 0.00 0.00 0.00 63 1015.6
20260501234445 0 0.0 0.0 0.00 0.00 0.00
20260501233958 65 308 5.0 7.0 0.00 0.00 0.00 63 1015.6
20260501233945 0 0.0 0.0 0.00 0.00 0.00
20260501233457 65 306 6.0 8.0 0.00 0.00 0.00 63 1015.6
20260501233446 0 0.0 0.0 0.00 0.00 0.00
20260501232957 65 308 4.0 8.0 0.00 0.00 0.00 64 1015.6
20260501232457 65 299 5.0 7.0 0.00 0.00 0.00 64 1015.7
20260501232445 0 0.0 0.0 0.00 0.00 0.00
20260501231958 65 314 4.0 6.0 0.00 0.00 0.00 64 1015.7
20260501231457 65 295 3.0 7.0 0.00 0.00 0.00 64 1015.8
20260501231446 0 0.0 0.0 0.00 0.00 0.00
20260501230957 66 301 5.0 8.0 0.00 0.00 0.00 64 1015.9
20260501230457 66 307 4.0 6.0 0.00 0.00 0.00 64 1016.0
20260501230446 0 0.0 0.0 0.00 0.00 0.00
20260501225959 66 311 4.0 7.0 0.00 0.00 0.00 63 1016.0
20260501225947 0 0.0 0.0 0.00 0.00 0.00
20260501225457 65 304 4.0 8.0 0.00 0.00 0.00 64 1016.1
20260501225446 0 0.0 0.0 0.00 0.00 0.00
20260501224957 65 318 4.0 7.0 0.00 0.00 0.00 64 1016.1
20260501224946 0 0.0 0.0 0.00 0.00 0.00
20260501224457 65 306 5.0 8.0 0.00 0.00 0.00 64 1016.2
20260501223958 65 309 5.0 7.0 0.00 0.00 0.00 65 1016.2
20260501223946 0 0.0 0.0 0.00 0.00 0.00
20260501223459 65 308 4.0 9.0 0.00 0.00 0.00 65 1016.2
20260501223446 0 0.0 0.0 0.00 0.00 0.00
20260501222957 65 298 4.0 7.0 0.00 0.00 0.00 64 1016.4
20260501222945 0 0.0 0.0 0.00 0.00 0.00
20260501222457 65 299 4.0 8.0 0.00 0.00 0.00 64 1016.4
20260501221957 65 310 4.0 7.0 0.00 0.00 0.00 63 1016.4
20260501221946 0 0.0 0.0 0.00 0.00 0.00
20260501221457 65 305 4.0 9.0 0.00 0.00 0.00 64 1016.4
20260501221447 0 0.0 0.0 0.00 0.00 0.00
20260501220957 65 309 5.0 8.0 0.00 0.00 0.00 64 1016.4
20260501220946 0 0.0 0.0 0.00 0.00 0.00
20260501220457 65 301 6.0 9.0 0.00 0.00 0.00 63 1016.5
20260501215957 65 299 4.0 8.0 0.00 0.00 0.00 63 1016.5
20260501215946 0 0.0 0.0 0.00 0.00 0.00
20260501215457 65 306 5.0 7.0 0.00 0.00 0.00 63 1016.5
20260501215443 0 0.0 0.0 0.00 0.00 0.00
20260501214957 64 301 5.0 7.0 0.00 0.00 0.00 64 1016.5
20260501214943 0 0.0 0.0 0.00 0.00 0.00
20260501214457 64 307 4.0 8.0 0.00 0.00 0.00 64 1016.5
20260501213958 64 301 5.0 7.0 0.00 0.00 0.00 64 1016.5
20260501213944 0 0.0 0.0 0.00 0.00 0.00
20260501213458 64 297 4.0 6.0 0.00 0.00 0.00 65 1016.5
20260501213443 0 0.0 0.0 0.00 0.00 0.00